This is the latest recevied weather packets stored in our database for station/object K8JCL-13. If no packets are shown the sender has not sent any weather packets the latest 10 day(s).
| Time | Temp. | Humidity | Pressure | Rain* | Wind** | Luminosity | Snow |
|---|---|---|---|---|---|---|---|
| 1777898857 | 13.89° C | 69% | 1009.5 hPa | 0 mm | - | 158 W/m² | - |
| 1777898554 | 13.33° C | 72% | 1009.8 hPa | 0 mm | - | 174 W/m² | - |
| 1777898251 | 12.78° C | 73% | 1009.7 hPa | 0 mm | - | 111 W/m² | - |
| 1777897949 | 12.78° C | 73% | 1009.6 hPa | 0 mm | - | 115 W/m² | - |
| 1777897644 | 12.22° C | 75% | 1009.7 hPa | 0 mm | - | 102 W/m² | - |
| 1777897341 | 11.67° C | 74% | 1009.5 hPa | 0 mm | - | 77 W/m² | - |
| 1777897036 | 11.67° C | 75% | 1009.5 hPa | 0 mm | - | 69 W/m² | - |
| 1777896734 | 11.67° C | 75% | 1009.7 hPa | 0 mm | - | 59 W/m² | - |
| 1777896431 | 11.67° C | 75% | 1009.5 hPa | 0 mm | - | 55 W/m² | - |
| 1777896128 | 11.67° C | 73% | 1009.3 hPa | 0 mm | - | 52 W/m² | - |
| 1777895826 | 11.67° C | 75% | 1009.5 hPa | 0 mm | - | 62 W/m² | - |
| 1777895523 | 11.67° C | 74% | 1009.6 hPa | 0 mm | - | 59 W/m² | - |
| 1777895221 | 11.11° C | 74% | 1009.5 hPa | 0 mm | - | 58 W/m² | - |
| 1777894918 | 11.11° C | 74% | 1009.4 hPa | 0 mm | - | 56 W/m² | - |
| 1777894615 | 11.11° C | 75% | 1009.5 hPa | 0 mm | - | 47 W/m² | - |
| 1777894312 | 10.56° C | 75% | 1009.5 hPa | 0 mm | - | 43 W/m² | - |
| 1777894009 | 10.56° C | 75% | 1009.6 hPa | 0 mm | - | 37 W/m² | - |
| 1777893706 | 10.56° C | 75% | 1009.2 hPa | 0 mm | - | 30 W/m² | - |
| 1777893402 | 10.56° C | 74% | 1009.3 hPa | 0 mm | - | 25 W/m² | - |
| 1777893098 | 10.56° C | 75% | 1009 hPa | 0 mm | - | 23 W/m² | - |
| 1777892795 | 10° C | 75% | 1009.3 hPa | 0 mm | - | 21 W/m² | - |
| 1777892492 | 10° C | 76% | 1009.2 hPa | 0 mm | - | 18 W/m² | - |
| 1777892187 | 10° C | 76% | 1009.6 hPa | 0 mm | - | 14 W/m² | - |
| 1777891884 | 9.44° C | 77% | 1009.4 hPa | 0 mm | - | 10 W/m² | - |
| 1777891581 | 9.44° C | 76% | 1009.3 hPa | 0 mm | - | 7 W/m² | - |
* Rain latest hour (hover to see other rain measurements)
** Current wind speed in m/s (hover to see current wind gust speed)